map of WDH home
WDH - Airport
Location
City:  Windhoek, Khomas, Namibia
Name:Hosea Kutako International Airport
Old (Alt.):J. G. Strijdom
ICAO:FYWH
IATA:WDH

Details
Type:Airport (Aerodrome, Airfield)
Use:Public/Civil, International (customs port of entry)
Latitude:2228'48"S (-22.479893)
Longitude:1728'15"E (17.470950)
Datum:WGS 1984
Elevation:5640 ft (1719 m)
Variation:11.89W (WMM2015v2 magnetic declination)
0.07 annual change
Runways:2
Longest:15010 × 148 ft (4575 × 45 m), paved

Time
Time Zone:UTC+1 (DST+2)

Weather
METAR:FYWH 041400Z 13006KT 9999 SCT050 32/05 Q1020 NOSIG
TAF:FYWH 032200Z 0400/0500 01006KT 9999 FEW040CB BKN045TCU
TEMPO 0401/0403 -RA SCT020
BECMG 0406/0408 15007KT NSW NSC

Related Locations
Nearby:
Farthest:BKH: 12269 mi / 19744 km
Kekaha [Barking Sands Pacific Missile Range Facility (PMRF) Airport], Kauai, HI, US

Find:

   beyond  
but within

Other Information
Maps:
NOTAMs:
Links:
Sources:

  
  • flag of Namibia
  

Sectional Chart

Flight Planning
at skyvector.com

Satellite Image

Google Maps Satellite view

 

Copyright © 2004-2019 Karl L. Swartz. All rights reserved.
The Great Circle Mapper name and logo are trademarks of the Great Circle Mapper.
All other trademarks mentioned herein belong to their respective owners.
Please see credits for attibutions and further copyright information.

  Follow gcmap on Facebook Follow gcmap on Twitter GCmap on LinkedIn

hCard Microformat

Geo Microformat